Flag for U.S.A. Weather past 2 weeks in Atlanta, Georgia, U.S.A.

Now
48 °F

Overcast.


Feels Like: 48 °F
Forecast: 41 / 51 °F
Wind: No wind

Location: Fulton County Airport-Brown Field

Current Time: Dec 20, 2014 at 10:40:09 PM

Latest Report: Dec 20, 2014 at 9:53 PM


Visibility: 9 mi

Pressure: 30.20 "Hg

Humidity: 86%

Dew point: 44 °F

Location of AtlantaLocation

Historic Weather in Atlanta — Graph

°F

Atlanta temperature yesterday

Maximum temperature yesterday: 52 °F (at 1:53 PM)
Minimum temperature yesterday: 37 °F (at 4:53 AM)
Average temperature yesterday: 44 °F

Past Weeks' High & Low Weather Summary

 TemperatureHumidityPressure
High67 °F (Dec 6, 2:53 PM)93% (Dec 5, 9:53 PM)30.36 "Hg (Dec 5, 9:53 PM)
Low30 °F (Dec 15, 6:53 AM)13% (Dec 12, 1:53 PM)29.93 "Hg (Dec 16, 4:53 AM)
Average45 °F65%30.16 "Hg
* Reported Dec 5 9:00 PM — Dec 20 8:53 PM, Atlanta, Weather by CustomWeather, © 2014

Note: Actual official high and low records may vary slightly from our data, if they occured in-between our weather recording intervals... More about our weather records

Advertising

Atlanta weather history for previous 24 hours

 ConditionsComfort  
Time TempWeatherWind HumidityBarometerVisibility
8:53 PM
Dec 20
48 °FOvercast.No wind86%30.20 "Hg9 mi
8:03 PM49 °FOvercast.No wind84%30.19 "Hg8 mi
7:53 PM49 °FOvercast.3 mph84%30.20 "Hg8 mi
6:53 PM50 °FOvercast.3 mph83%30.19 "Hg9 mi
5:53 PM50 °FOvercast.No wind83%30.18 "Hg9 mi
4:53 PM51 °FOvercast.3 mph77%30.16 "Hg8 mi
3:53 PM51 °FOvercast.3 mph77%30.16 "Hg7 mi
2:53 PM50 °FOvercast.3 mph80%30.15 "Hg7 mi
1:53 PM49 °FOvercast.3 mph80%30.16 "Hg7 mi
1:00 PM49 °FOvercast.5 mph80%30.18 "Hg9 mi
11:53 AM49 °FLow clouds.3 mph84%30.20 "Hg8 mi
10:53 AM47 °FFog.3 mph90%30.21 "Hg6 mi
9:53 AM45 °FFog.3 mph90%30.22 "Hg6 mi
8:53 AM43 °FFog.No wind93%30.21 "Hg4 mi
7:53 AM42 °FOvercast.No wind92%30.20 "Hg7 mi
6:53 AM42 °FLight rain. Fog.3 mph89%30.17 "Hg6 mi
5:53 AM41 °FFog.No wind93%30.14 "Hg4 mi
4:53 AM41 °FLight rain. Mostly cloudy.No wind89%30.14 "Hg7 mi
3:53 AM41 °FLight rain. Mostly cloudy.No wind89%30.14 "Hg10 mi
2:53 AM41 °FLight rain. Overcast.No wind89%30.14 "Hg7 mi
1:53 AM41 °FLight rain. Overcast.3 mph89%30.13 "Hg8 mi
12:53 AM41 °FLight rain. Mostly cloudy.3 mph82%30.15 "Hg10 mi
11:53 PM
Dec 19
42 °FLight rain. Mostly cloudy.No wind82%30.16 "Hg10 mi
10:53 PM43 °FLight rain. Overcast.No wind65%30.18 "Hg10 mi
Weather by CustomWeather, © 2014

See weather overviewHow to use our weather pages